WX4LTG Weather Reports


time (UTC)temp
C
wind
direction
speed
KPH
gust
KPH
rain 1hr
cm
rain 24hr
cm
rain mn
cm
humidity
%
barometer
mb
20260508013941 32 254 6.4 12.9 0.00 0.00 0.00 12 1008.7
20260508013437 33 279 11.3 16.1 0.00 0.00 0.00 11 1008.7
20260508012935 33 266 12.9 16.1 0.00 0.00 0.00 11 1008.8
20260508012431 33 211 4.8 16.1 0.00 0.00 0.00 12 1008.6
20260508011929 33 234 4.8 12.9 0.00 0.00 0.00 12 1008.4
20260508011427 33 277 4.8 14.5 0.00 0.00 0.00 12 1008.3
20260508010924 33 219 6.4 12.9 0.00 0.00 0.00 11 1008.6
20260508010421 33 233 6.4 9.7 0.00 0.00 0.00 11 1008.6
20260508005918 33 256 6.4 11.3 0.00 0.00 0.00 11 1008.5
20260508005415 33 234 9.7 14.5 0.00 0.00 0.00 11 1008.5
20260508004911 34 257 9.7 12.9 0.00 0.00 0.00 11 1008.4
20260508004408 33 230 9.7 11.3 0.00 0.00 0.00 11 1008.4
20260508003904 33 276 11.3 14.5 0.00 0.00 0.00 11 1008.4
20260508003401 34 241 11.3 20.9 0.00 0.00 0.00 11 1008.6
20260508002858 34 210 11.3 12.9 0.00 0.00 0.00 10 1008.6
20260508002355 34 253 9.7 17.7 0.00 0.00 0.00 11 1008.4
20260508001851 34 278 8.0 11.3 0.00 0.00 0.00 11 1008.4
20260508001347 35 238 6.4 9.7 0.00 0.00 0.00 10 1008.5
20260508000844 35 183 0.0 8.0 0.00 0.00 0.00 10 1008.4
20260508000342 35 229 1.6 11.3 0.00 0.00 0.00 10 1008.4
20260507235837 35 280 4.8 11.3 0.00 0.00 0.00 10 1008.3
20260507235334 34 258 6.4 12.9 0.00 0.00 0.00 10 1008.4
20260507234831 35 78 1.6 11.3 0.00 0.00 0.00 10 1008.5
20260507234328 34 121 0.0 8.0 0.00 0.00 0.00 10 1008.6
20260507233824 35 146 4.8 12.9 0.00 0.00 0.00 10 1008.5
20260507233322 35 157 3.2 4.8 0.00 0.00 0.00 10 1008.6
20260507232820 35 74 4.8 4.8 0.00 0.00 0.00 10 1008.7
20260507232316 35 99 0.0 0.0 0.00 0.00 0.00 9 1008.6
20260507231813 34 117 0.0 3.2 0.00 0.00 0.00 10 1008.6
20260507231310 35 162 0.0 4.8 0.00 0.00 0.00 10 1008.8
20260507230806 35 134 4.8 11.3 0.00 0.00 0.00 10 1008.7
20260507230304 34 190 8.0 17.7 0.00 0.00 0.00 10 1008.7
20260507225804 35 209 0.0 4.8 0.00 0.00 0.00 10 1008.8
20260507225300 34 81 1.6 4.8 0.00 0.00 0.00 10 1008.8
20260507224756 34 124 0.0 4.8 0.00 0.00 0.00 10 1008.8
20260507224253 35 145 1.6 8.0 0.00 0.00 0.00 10 1008.9
20260507223749 35 126 1.6 8.0 0.00 0.00 0.00 10 1008.7
20260507223246 35 116 1.6 9.7 0.00 0.00 0.00 10 1008.6
20260507222743 34 143 3.2 8.0 0.00 0.00 0.00 10 1008.9
20260507222239 34 135 3.2 11.3 0.00 0.00 0.00 10 1009.3
20260507221736 35 72 0.0 1.6 0.00 0.00 0.00 10 1009.3
20260507221232 34 67 0.0 8.0 0.00 0.00 0.00 11 1009.1
20260507220729 34 91 0.0 8.0 0.00 0.00 0.00 11 1009.3
20260507220227 34 100 6.4 8.0 0.00 0.00 0.00 11 1009.0
20260507215723 33 125 0.0 4.8 0.00 0.00 0.00 10 1009.3
20260507215221 33 72 0.0 4.8 0.00 0.00 0.00 10 1009.2
20260507214718 34 116 1.6 9.7 0.00 0.00 0.00 10 1009.2
20260507214215 34 96 6.4 9.7 0.00 0.00 0.00 10 1009.5
20260507213710 34 116 3.2 8.0 0.00 0.00 0.00 10 1009.4
20260507213208 35 129 0.0 8.0 0.00 0.00 0.00 10 1009.8
20260507212703 35 187 0.0 11.3 0.00 0.00 0.00 10 1009.7
20260507212200 33 242 1.6 8.0 0.00 0.00 0.00 10 1009.9
20260507211657 33 226 4.8 9.7 0.00 0.00 0.00 11 1009.7
20260507211153 33 204 1.6 12.9 0.00 0.00 0.00 11 1009.7
20260507210650 34 230 3.2 12.9 0.00 0.00 0.00 10 1010.1
20260507210147 34 99 0.0 3.2 0.00 0.00 0.00 11 1010.1
20260507205643 33 134 0.0 3.2 0.00 0.00 0.00 11 1010.2
20260507205140 33 85 3.2 8.0 0.00 0.00 0.00 10 1010.3
20260507204636 33 51 0.0 3.2 0.00 0.00 0.00 11 1010.2
20260507204134 33 118 0.0 0.0 0.00 0.00 0.00 11 1010.3
20260507203632 32 222 0.0 8.0 0.00 0.00 0.00 12 1010.3
20260507203129 32 302 4.8 12.9 0.00 0.00 0.00 12 1010.7
20260507202625 33 247 4.8 9.7 0.00 0.00 0.00 11 1010.5
20260507202121 33 88 0.0 4.8 0.00 0.00 0.00 12 1010.7
20260507201616 33 74 0.0 3.2 0.00 0.00 0.00 11 1010.7
20260507201114 33 115 0.0 1.6 0.00 0.00 0.00 12 1010.8
20260507200609 33 130 11.3 12.9 0.00 0.00 0.00 12 1010.7
20260507200105 33 229 3.2 4.8 0.00 0.00 0.00 12 1011.2
20260507195603 32 84 0.0 0.0 0.00 0.00 0.00 12 1011.2
20260507195100 32 228 0.0 8.0 0.00 0.00 0.00 12 1011.3
20260507194556 32 260 4.8 9.7 0.00 0.00 0.00 13 1011.2
20260507194052 32 205 0.0 1.6 0.00 0.00 0.00 13 1011.7
20260507193549 32 258 6.4 11.3 0.00 0.00 0.00 12 1011.5
20260507193046 32 246 6.4 11.3 0.00 0.00 0.00 13 1011.7
20260507192542 32 190 1.6 4.8 0.00 0.00 0.00 13 1011.8
20260507192039 31 90 0.0 0.0 0.00 0.00 0.00 13 1011.9
20260507191534 31 66 0.0 3.2 0.00 0.00 0.00 13 1012.1
20260507191032 31 38 4.8 8.0 0.00 0.00 0.00 14 1012.1
20260507190529 31 128 1.6 9.7 0.00 0.00 0.00 13 1012.2
20260507190028 32 88 1.6 11.3 0.00 0.00 0.00 13 1012.3
20260507185526 32 114 0.0 3.2 0.00 0.00 0.00 14 1012.3
20260507185022 32 227 4.8 4.8 0.00 0.00 0.00 13 1012.5
20260507184520 31 222 4.8 8.0 0.00 0.00 0.00 14 1012.4
20260507184018 31 184 3.2 8.0 0.00 0.00 0.00 14 1012.6
20260507183513 31 284 8.0 11.3 0.00 0.00 0.00 15 1012.8
20260507183011 31 244 4.8 8.0 0.00 0.00 0.00 14 1012.7
20260507182507 31 305 1.6 3.2 0.00 0.00 0.00 15 1013.0
20260507182003 31 186 0.0 0.0 0.00 0.00 0.00 14 1012.8
20260507181500 31 108 0.0 8.0 0.00 0.00 0.00 15 1012.8
20260507180956 31 128 4.8 14.5 0.00 0.00 0.00 15 1012.6
20260507180453 31 133 0.0 3.2 0.00 0.00 0.00 15 1013.1
20260507175949 30 105 6.4 9.7 0.00 0.00 0.00 14 1013.1
20260507175446 30 176 0.0 3.2 0.00 0.00 0.00 16 1013.0
20260507174944 31 100 0.0 4.8 0.00 0.00 0.00 15 1013.1
20260507174440 30 162 0.0 8.0 0.00 0.00 0.00 15 1013.3
20260507173938 30 101 1.6 3.2 0.00 0.00 0.00 15 1013.3
20260507173435 30 177 3.2 8.0 0.00 0.00 0.00 15 1013.2
20260507172932 30 165 4.8 8.0 0.00 0.00 0.00 16 1013.5
20260507172428 30 145 0.0 0.0 0.00 0.00 0.00 15 1013.3
20260507171924 30 185 0.0 1.6 0.00 0.00 0.00 14 1013.6
20260507171421 30 106 1.6 3.2 0.00 0.00 0.00 14 1013.5
20260507170918 30 107 0.0 0.0 0.00 0.00 0.00 14 1013.5
20260507170415 30 152 4.8 8.0 0.00 0.00 0.00 14 1013.3
20260507165911 29 121 0.0 4.8 0.00 0.00 0.00 15 1013.8
20260507165407 29 109 0.0 8.0 0.00 0.00 0.00 15 1013.5
20260507164903 28 98 0.0 4.8 0.00 0.00 0.00 14 1013.4
20260507164400 29 110 6.4 9.7 0.00 0.00 0.00 15 1013.5
20260507163857 28 87 0.0 9.7 0.00 0.00 0.00 15 1013.8
20260507163354 29 87 0.0 0.0 0.00 0.00 0.00 14 1013.8
20260507162851 28 95 0.0 0.0 0.00 0.00 0.00 15 1013.5
20260507162346 28 85 0.0 4.8 0.00 0.00 0.00 15 1013.6
20260507161844 27 79 0.0 3.2 0.00 0.00 0.00 15 1013.8
20260507161340 28 120 0.0 8.0 0.00 0.00 0.00 14 1014.0
20260507160837 28 104 1.6 4.8 0.00 0.00 0.00 15 1013.8
20260507160332 27 21 4.8 8.0 0.00 0.00 0.00 16 1014.2
20260507155829 27 75 3.2 8.0 0.00 0.00 0.00 16 1014.0
20260507155325 27 23 1.6 4.8 0.00 0.00 0.00 17 1014.1
20260507154822 27 90 0.0 8.0 0.00 0.00 0.00 18 1014.0
20260507154319 27 61 0.0 3.2 0.00 0.00 0.00 21 1013.9
20260507153816 27 90 0.0 4.8 0.00 0.00 0.00 21 1014.1
20260507153312 26 111 1.6 4.8 0.00 0.00 0.00 19 1014.1
20260507152809 26 83 0.0 0.0 0.00 0.00 0.00 24 1014.1
20260507152306 26 83 0.0 0.0 0.00 0.00 0.00 23 1013.9
20260507151801 25 78 0.0 0.0 0.00 0.00 0.00 24 1014.1
20260507151257 25 76 0.0 0.0 0.00 0.00 0.00 26 1014.1
20260507150754 25 85 0.0 0.0 0.00 0.00 0.00 28 1013.8
20260507150251 23 79 0.0 0.0 0.00 0.00 0.00 27 1014.0
20260507145747 23 63 0.0 1.6 0.00 0.00 0.00 29 1014.0
20260507145244 23 73 0.0 0.0 0.00 0.00 0.00 29 1014.2
20260507144741 23 73 0.0 0.0 0.00 0.00 0.00 30 1014.0
20260507144239 23 56 0.0 0.0 0.00 0.00 0.00 30 1013.9
20260507143735 22 66 0.0 0.0 0.00 0.00 0.00 31 1014.2
20260507143232 22 88 0.0 0.0 0.00 0.00 0.00 32 1013.8
20260507142728 22 58 0.0 0.0 0.00 0.00 0.00 32 1014.0
20260507142225 22 62 0.0 0.0 0.00 0.00 0.00 32 1014.2
20260507141721 21 90 0.0 0.0 0.00 0.00 0.00 35 1014.1
20260507141218 20 87 0.0 0.0 0.00 0.00 0.00 37 1014.0
20260507140714 20 79 0.0 0.0 0.00 0.00 0.00 38 1014.0
20260507140212 20 86 0.0 0.0 0.00 0.00 0.00 40 1013.9
20260507135709 19 82 0.0 0.0 0.00 0.00 0.00 40 1014.1
20260507135206 19 93 0.0 0.0 0.00 0.00 0.00 41 1014.0
20260507134702 19 84 0.0 0.0 0.00 0.00 0.00 40 1013.8
20260507134159 19 86 0.0 0.0 0.00 0.00 0.00 39 1014.0
20260507133654 18 95 0.0 0.0 0.00 0.00 0.00 45 1014.0
20260507133152 18 104 0.0 0.0 0.00 0.00 0.00 41 1013.9
20260507132649 17 88 0.0 0.0 0.00 0.00 0.00 41 1013.8
20260507132145 17 90 0.0 0.0 0.00 0.00 0.00 42 1013.8
20260507131643 17 90 0.0 0.0 0.00 0.00 0.00 42 1013.8
20260507131140 17 98 0.0 0.0 0.00 0.00 0.00 45 1013.6
20260507130636 16 99 0.0 0.0 0.00 0.00 0.00 45 1013.6
20260507130134 16 103 0.0 0.0 0.00 0.00 0.00 44 1013.5
20260507125633 16 89 0.0 0.0 0.00 0.00 0.00 44 1013.3
20260507125130 16 81 0.0 0.0 0.00 0.00 0.00 45 1013.5
20260507124626 15 81 0.0 0.0 0.00 0.00 0.00 46 1013.3
20260507124124 15 100 0.0 0.0 0.00 0.00 0.00 45 1013.2
20260507123622 16 102 0.0 0.0 0.00 0.00 0.00 45 1013.6
20260507123119 16 105 0.0 0.0 0.00 0.00 0.00 44 1013.4
20260507122614 16 111 0.0 1.6 0.00 0.00 0.00 44 1013.4
20260507122110 16 111 0.0 0.0 0.00 0.00 0.00 47 1013.4
20260507121606 16 102 0.0 0.0 0.00 0.00 0.00 47 1013.1
20260507121102 16 111 0.0 0.0 0.00 0.00 0.00 46 1013.2
20260507120558 16 102 0.0 0.0 0.00 0.00 0.00 50 1013.3
20260507120055 16 98 0.0 0.0 0.00 0.00 0.00 49 1013.2
20260507115551 16 85 0.0 0.0 0.00 0.00 0.00 47 1013.3
20260507115047 16 85 0.0 0.0 0.00 0.00 0.00 47 1013.3
20260507114543 16 90 0.0 0.0 0.00 0.00 0.00 47 1013.5
20260507114041 16 118 0.0 0.0 0.00 0.00 0.00 46 1013.2
20260507113538 16 82 0.0 0.0 0.00 0.00 0.00 46 1013.2
20260507113035 16 83 0.0 0.0 0.00 0.00 0.00 45 1013.2
20260507112533 16 86 0.0 0.0 0.00 0.00 0.00 47 1013.3
20260507112029 16 87 0.0 0.0 0.00 0.00 0.00 47 1013.4
20260507111527 16 83 0.0 0.0 0.00 0.00 0.00 46 1013.1
20260507111023 16 83 0.0 0.0 0.00 0.00 0.00 46 1013.4
20260507110519 17 80 0.0 0.0 0.00 0.00 0.00 45 1013.3
20260507110016 16 82 0.0 0.0 0.00 0.00 0.00 45 1013.4
20260507105513 17 73 0.0 0.0 0.00 0.00 0.00 44 1013.5
20260507105009 17 83 0.0 0.0 0.00 0.00 0.00 43 1013.3
20260507104507 17 88 0.0 0.0 0.00 0.00 0.00 42 1013.8
20260507104003 17 80 0.0 0.0 0.00 0.00 0.00 42 1013.6
20260507103500 17 92 0.0 0.0 0.00 0.00 0.00 43 1013.4
20260507102955 17 93 0.0 0.0 0.00 0.00 0.00 42 1013.8
20260507102452 17 96 0.0 0.0 0.00 0.00 0.00 41 1013.8
20260507101948 17 97 0.0 0.0 0.00 0.00 0.00 43 1013.6
20260507101443 17 98 0.0 0.0 0.00 0.00 0.00 42 1013.8
20260507100940 17 86 0.0 0.0 0.00 0.00 0.00 42 1013.6
20260507100438 17 88 0.0 0.0 0.00 0.00 0.00 40 1014.0
20260507095936 17 87 0.0 0.0 0.00 0.00 0.00 40 1014.0
20260507095433 17 102 0.0 0.0 0.00 0.00 0.00 40 1013.8
20260507094930 17 120 0.0 0.0 0.00 0.00 0.00 40 1014.1
20260507094426 18 89 0.0 0.0 0.00 0.00 0.00 39 1013.9
20260507093923 18 86 0.0 0.0 0.00 0.00 0.00 39 1014.1
20260507093421 18 84 0.0 0.0 0.00 0.00 0.00 40 1014.1
20260507092920 18 79 0.0 0.0 0.00 0.00 0.00 39 1014.2
20260507092415 18 89 0.0 0.0 0.00 0.00 0.00 40 1014.4
20260507091912 18 93 0.0 0.0 0.00 0.00 0.00 39 1014.1
20260507091408 18 81 0.0 0.0 0.00 0.00 0.00 40 1013.9
20260507090904 18 86 0.0 0.0 0.00 0.00 0.00 40 1014.1
20260507090401 18 86 0.0 0.0 0.00 0.00 0.00 41 1014.2
20260507085858 17 97 0.0 0.0 0.00 0.00 0.00 41 1014.3
20260507085354 18 90 0.0 0.0 0.00 0.00 0.00 41 1014.3
20260507084851 18 89 0.0 0.0 0.00 0.00 0.00 39 1014.3
20260507084348 18 78 0.0 0.0 0.00 0.00 0.00 39 1014.2
20260507083845 18 93 0.0 0.0 0.00 0.00 0.00 40 1014.3
20260507083341 18 98 0.0 0.0 0.00 0.00 0.00 40 1014.1
20260507082838 18 98 0.0 0.0 0.00 0.00 0.00 38 1014.1
20260507082334 19 88 0.0 0.0 0.00 0.00 0.00 37 1014.3
20260507081831 19 83 0.0 0.0 0.00 0.00 0.00 36 1014.3
20260507081327 19 85 0.0 0.0 0.00 0.00 0.00 38 1014.3
20260507080824 18 86 0.0 0.0 0.00 0.00 0.00 39 1014.2
20260507080320 18 96 0.0 0.0 0.00 0.00 0.00 39 1014.3
20260507075815 18 96 0.0 0.0 0.00 0.00 0.00 39 1014.1
20260507075312 19 93 0.0 0.0 0.00 0.00 0.00 38 1014.4
20260507074809 19 90 0.0 0.0 0.00 0.00 0.00 36 1014.3
20260507074306 20 89 0.0 0.0 0.00 0.00 0.00 37 1014.4
20260507073803 20 92 0.0 0.0 0.00 0.00 0.00 38 1014.3
20260507073300 20 81 0.0 0.0 0.00 0.00 0.00 39 1014.4
20260507072757 20 88 0.0 0.0 0.00 0.00 0.00 37 1014.3
20260507072254 20 82 0.0 0.0 0.00 0.00 0.00 35 1014.0
20260507071752 20 78 0.0 0.0 0.00 0.00 0.00 36 1014.2
20260507071248 20 73 0.0 0.0 0.00 0.00 0.00 37 1014.3
20260507070745 20 70 0.0 0.0 0.00 0.00 0.00 37 1014.2
20260507070242 20 85 0.0 0.0 0.00 0.00 0.00 38 1014.0
20260507065738 20 90 0.0 0.0 0.00 0.00 0.00 37 1014.1
20260507065235 21 88 0.0 0.0 0.00 0.00 0.00 38 1014.2
20260507064733 21 86 0.0 0.0 0.00 0.00 0.00 36 1014.1
20260507064232 21 84 0.0 0.0 0.00 0.00 0.00 36 1014.3
20260507063728 21 75 0.0 0.0 0.00 0.00 0.00 34 1014.1
20260507063225 22 73 0.0 0.0 0.00 0.00 0.00 30 1014.2
20260507062722 22 70 0.0 0.0 0.00 0.00 0.00 28 1014.3
20260507062220 22 92 0.0 0.0 0.00 0.00 0.00 28 1014.1
20260507061717 23 29 0.0 0.0 0.00 0.00 0.00 27 1014.1
20260507061215 23 149 0.0 0.0 0.00 0.00 0.00 27 1014.1
20260507060713 23 97 0.0 0.0 0.00 0.00 0.00 27 1014.4
20260507060209 23 305 0.0 0.0 0.00 0.00 0.00 27 1014.1
20260507055705 23 102 0.0 0.0 0.00 0.00 0.00 27 1014.0
20260507055201 23 344 0.0 0.0 0.00 0.00 0.00 26 1014.0
20260507054657 23 142 0.0 0.0 0.00 0.00 0.00 27 1014.2
20260507054154 23 237 0.0 1.6 0.00 0.00 0.00 27 1014.0
20260507053652 23 216 0.0 0.0 0.00 0.00 0.00 27 1014.0
20260507053150 23 73 0.0 0.0 0.00 0.00 0.00 27 1013.8
20260507052648 23 260 0.0 0.0 0.00 0.00 0.00 28 1014.1
20260507052144 23 160 0.0 0.0 0.00 0.00 0.00 28 1014.2
20260507051642 23 122 0.0 0.0 0.00 0.00 0.00 28 1014.3
20260507051138 23 105 0.0 0.0 0.00 0.00 0.00 28 1013.9
20260507050635 23 162 0.0 0.0 0.00 0.00 0.00 27 1014.0
20260507050132 23 79 0.0 0.0 0.00 0.00 0.00 28 1014.0
20260507045629 23 81 0.0 0.0 0.00 0.00 0.00 27 1014.0
20260507045126 23 12 0.0 0.0 0.00 0.00 0.00 27 1013.8
20260507044622 23 37 0.0 0.0 0.00 0.00 0.00 27 1013.9
20260507044120 24 6 0.0 0.0 0.00 0.00 0.00 27 1013.8
20260507043615 24 332 0.0 0.0 0.00 0.00 0.00 26 1014.0
20260507043113 24 9 0.0 0.0 0.00 0.00 0.00 26 1013.8
20260507042609 24 20 0.0 0.0 0.00 0.00 0.00 26 1014.0
20260507042104 25 54 0.0 0.0 0.00 0.00 0.00 25 1013.6
20260507041601 25 269 0.0 0.0 0.00 0.00 0.00 25 1013.5
20260507041058 25 133 0.0 0.0 0.00 0.00 0.00 25 1013.6
20260507040554 25 106 0.0 0.0 0.00 0.00 0.00 25 1013.4
20260507040051 25 85 0.0 0.0 0.00 0.00 0.00 25 1013.3
20260507035547 25 349 0.0 0.0 0.00 0.00 0.00 25 1013.2
20260507035043 25 133 0.0 1.6 0.00 0.00 0.00 25 1013.2
20260507034540 25 152 0.0 0.0 0.00 0.00 0.00 25 1013.1
20260507034038 25 1 0.0 1.6 0.00 0.00 0.00 24 1013.1
20260507033536 25 298 0.0 3.2 0.00 0.00 0.00 24 1013.3
20260507033033 26 249 0.0 3.2 0.00 0.00 0.00 24 1013.1
20260507032530 26 293 3.2 8.0 0.00 0.00 0.00 24 1013.0
20260507032026 26 53 0.0 0.0 0.00 0.00 0.00 24 1013.0
20260507031522 26 152 0.0 1.6 0.00 0.00 0.00 23 1013.0
20260507031020 26 217 0.0 1.6 0.00 0.00 0.00 23 1013.0
20260507030516 26 70 0.0 3.2 0.00 0.00 0.00 23 1013.0
20260507030014 26 250 1.6 8.0 0.00 0.00 0.00 23 1012.8
20260507025511 26 167 0.0 0.0 0.00 0.00 0.00 23 1012.8
20260507025009 26 116 0.0 0.0 0.00 0.00 0.00 23 1012.7
20260507024506 26 221 0.0 0.0 0.00 0.00 0.00 23 1012.6
20260507024002 26 145 0.0 3.2 0.00 0.00 0.00 23 1012.8
20260507023458 26 289 0.0 1.6 0.00 0.00 0.00 23 1012.7
20260507022956 26 216 0.0 0.0 0.00 0.00 0.00 23 1012.8
20260507022453 26 262 0.0 4.8 0.00 0.00 0.00 23 1012.4
20260507021948 26 241 4.8 8.0 0.00 0.00 0.00 22 1012.5
20260507021444 26 106 0.0 4.8 0.00 0.00 0.00 23 1012.5
20260507020941 27 216 1.6 4.8 0.00 0.00 0.00 22 1012.4
20260507020438 27 236 0.0 4.8 0.00 0.00 0.00 22 1012.4
20260507015935 27 242 3.2 9.7 0.00 0.00 0.00 22 1012.3
20260507015434 27 226 4.8 4.8 0.00 0.00 0.00 22 1012.4
20260507014930 27 242 1.6 3.2 0.00 0.00 0.00 22 1012.3
20260507014427 27 303 1.6 3.2 0.00 0.00 0.00 22 1012.4